Weather History for Staples, MN

Change the Weather History Date:

Thursday, March 28, 2013

  Actual Average Record
Temperature  
Mean Temperature 22 °F -  
Max Temperature 39 °F 42 °F 62 °F (1998)
Min Temperature 6 °F 24 °F 0 °F (2011)
Degree Days  
Heating Degree Days 42    
Moisture  
Dew Point 16 °F    
Average Humidity 70    
Maximum Humidity 100    
Minimum Humidity 39    
Precipitation  
Precipitation 0.00 in - - ()
Sea Level Pressure  
Sea Level Pressure 30.27 in    
Wind  
Wind Speed 2 mph (SSE)    
Max Wind Speed 13 mph    
Max Gust Speed 17 mph    
Visibility 10 miles    
Events      
Averages and records for this station are not official NWS values.
T = Trace of Precipitation, MM = Missing Value Source: NWS Daily Summary

Daily Weather History Graph

Daily Weather History Graph

Search for Another Location

Airport:

Trip Planner

Search our weather history database for the weather conditions in past years. The results will help you decide how hot, cold, wet, or windy it might be!

Date:

Astronomy

Mar. 28, 2013 Rise Set
Actual Time 7:06 AM CDT 7:43 PM CDT
Civil Twilight 6:35 AM CDT 8:13 PM CDT
Nautical Twilight 5:59 AM CDT 8:49 PM CDT
Astronomical Twilight 5:22 AM CDT 9:26 PM CDT
Moon 9:44 PM CDT (3/28) 7:27 AM CDT (3/28)
Length of Visible Light 13h 37m
Length of Day
12h 37m
Full, 98% of the Moon is Illuminated
Mar 28
Full
Apr 2
Last Quarter
Apr 10
New
Apr 18
First Quarter
Apr 25
Full

Hourly Weather History & Observations

Time (CDT) Temp. Windchill Dew Point Humidity Pressure Visibility Wind Dir Wind Speed Gust Speed Precip Events Conditions
12:13 AM 14.0 °F - 12.2 °F 93% 30.30 in 10.0 mi Calm Calm - N/A   Clear
12:34 AM 14.0 °F - 12.2 °F 93% 30.30 in 10.0 mi Calm Calm - N/A   Clear
12:53 AM 15.8 °F - 14.0 °F 93% 30.30 in 10.0 mi Calm Calm - N/A   Clear
1:13 AM 14.0 °F - 12.2 °F 93% 30.30 in 10.0 mi Calm Calm - N/A   Clear
1:33 AM 10.4 °F - 8.6 °F 92% 30.30 in 10.0 mi Calm Calm - N/A   Clear
1:54 AM 14.0 °F - 12.2 °F 93% 30.30 in 10.0 mi Calm Calm - N/A   Clear
2:13 AM 12.2 °F - 12.2 °F 100% 30.29 in 10.0 mi Calm Calm - N/A   Clear
2:33 AM 12.2 °F - 12.2 °F 100% 30.29 in 10.0 mi Calm Calm - N/A   Clear
2:53 AM 12.2 °F - 12.2 °F 100% 30.29 in 7.0 mi Calm Calm - N/A   Clear
3:13 AM 12.2 °F - 10.4 °F 92% 30.29 in 10.0 mi Calm Calm - N/A   Clear
3:34 AM 8.6 °F - 6.8 °F 92% 30.29 in 7.0 mi Calm Calm - N/A   Clear
3:53 AM 10.4 °F - 8.6 °F 92% 30.29 in 7.0 mi Calm Calm - N/A   Clear
4:13 AM 10.4 °F - 8.6 °F 92% 30.29 in 2.5 mi Calm Calm - N/A   Clear
4:34 AM 10.4 °F - 8.6 °F 92% 30.29 in 10.0 mi Calm Calm - N/A   Clear
4:53 AM 8.6 °F - 6.8 °F 92% 30.29 in 5.0 mi Calm Calm - N/A   Clear
5:13 AM 10.4 °F - 10.4 °F 100% 30.28 in 7.0 mi Calm Calm - N/A   Clear
5:34 AM 10.4 °F - 8.6 °F 92% 30.28 in 10.0 mi Calm Calm - N/A   Mostly Cloudy
5:53 AM 6.8 °F -0.1 °F 6.8 °F 100% 30.28 in 10.0 mi East 3.5 mph - N/A   Overcast
6:13 AM 14.0 °F 6.5 °F 12.2 °F 93% 30.28 in 10.0 mi East 4.6 mph - N/A   Mostly Cloudy
6:34 AM 8.6 °F - 6.8 °F 92% 30.28 in 10.0 mi Calm Calm - N/A   Overcast
6:53 AM 10.4 °F - 8.6 °F 92% 30.28 in 10.0 mi Calm Calm - N/A   Overcast
7:13 AM 10.4 °F - 8.6 °F 92% 30.29 in 7.0 mi Calm Calm - N/A   Overcast
7:34 AM 14.0 °F - 12.2 °F 93% 30.29 in 10.0 mi Calm Calm - N/A   Overcast
7:53 AM 10.4 °F - 8.6 °F 92% 30.29 in 10.0 mi Calm Calm - N/A   Overcast
8:13 AM 12.2 °F - 12.2 °F 100% 30.29 in 10.0 mi Calm Calm - N/A   Overcast
8:34 AM 17.6 °F - 14.0 °F 86% 30.29 in 10.0 mi Calm Calm - N/A   Overcast
8:53 AM 24.8 °F - 17.6 °F 74% 30.29 in 10.0 mi Calm Calm - N/A   Overcast
9:13 AM 26.6 °F 21.2 °F 17.6 °F 69% 30.29 in 10.0 mi ESE 4.6 mph - N/A   Mostly Cloudy
9:34 AM 28.4 °F 22.2 °F 17.6 °F 64% 30.28 in 10.0 mi ESE 5.8 mph - N/A   Clear
9:53 AM 30.2 °F 24.3 °F 19.4 °F 64% 30.29 in 10.0 mi SE 5.8 mph - N/A   Clear
10:13 AM 30.2 °F - 19.4 °F 64% 30.29 in 10.0 mi Calm Calm - N/A   Clear
10:34 AM 33.8 °F 28.6 °F 19.4 °F 56% 30.29 in 10.0 mi SE 5.8 mph - N/A   Mostly Cloudy
10:53 AM 35.6 °F 31.7 °F 19.4 °F 52% 30.29 in 10.0 mi ESE 4.6 mph - N/A   Overcast
11:14 AM 35.6 °F 28.0 °F 17.6 °F 48% 30.29 in 10.0 mi SE 10.4 mph - N/A   Overcast
11:33 AM 35.6 °F 28.6 °F 21.2 °F 56% 30.29 in 10.0 mi South 9.2 mph - N/A   Mostly Cloudy
11:53 AM 37.4 °F 32.1 °F 19.4 °F 48% 30.29 in 10.0 mi SSE 6.9 mph - N/A   Clear
12:14 PM 37.4 °F 30.8 °F 17.6 °F 45% 30.29 in 10.0 mi SSE 9.2 mph - N/A   Scattered Clouds
12:33 PM 37.4 °F 29.8 °F 17.6 °F 45% 30.29 in 10.0 mi SE 11.5 mph 17.3 mph N/A   Scattered Clouds
12:53 PM 37.4 °F 29.3 °F 19.4 °F 48% 30.29 in 10.0 mi South 12.7 mph - N/A   Mostly Cloudy
1:14 PM 37.4 °F 30.3 °F 19.4 °F 48% 30.28 in 10.0 mi South 10.4 mph - N/A   Overcast
1:33 PM 37.4 °F 30.8 °F 19.4 °F 48% 30.27 in 10.0 mi South 9.2 mph - N/A   Overcast
1:53 PM 37.4 °F 30.8 °F 17.6 °F 45% 30.27 in 10.0 mi SSE 9.2 mph - N/A   Mostly Cloudy
2:14 PM 37.4 °F 30.3 °F 19.4 °F 48% 30.26 in 10.0 mi South 10.4 mph - N/A   Overcast
2:33 PM 39.2 °F 33.0 °F 17.6 °F 42% 30.26 in 10.0 mi South 9.2 mph - N/A   Scattered Clouds
2:53 PM 39.2 °F 34.2 °F 17.6 °F 42% 30.25 in 10.0 mi ESE 6.9 mph - N/A   Mostly Cloudy
3:14 PM 39.2 °F 32.5 °F 17.6 °F 42% 30.25 in 10.0 mi South 10.4 mph - N/A   Overcast
3:33 PM 39.2 °F 33.0 °F 15.8 °F 39% 30.25 in 10.0 mi SSE 9.2 mph - N/A   Overcast
3:53 PM 39.2 °F 34.2 °F 17.6 °F 42% 30.24 in 10.0 mi South 6.9 mph - N/A   Overcast
4:14 PM 39.2 °F 33.6 °F 19.4 °F 45% 30.24 in 10.0 mi South 8.1 mph - N/A   Overcast
4:33 PM 39.2 °F 33.0 °F 21.2 °F 49% 30.24 in 10.0 mi South 9.2 mph - N/A   Overcast
4:53 PM 39.2 °F 34.2 °F 21.2 °F 49% 30.24 in 10.0 mi SSE 6.9 mph - N/A   Overcast
5:14 PM 39.2 °F 33.6 °F 23.0 °F 52% 30.24 in 10.0 mi South 8.1 mph - N/A   Overcast
5:33 PM 37.4 °F 32.1 °F 24.8 °F 60% 30.24 in 10.0 mi South 6.9 mph - N/A   Overcast
5:53 PM 37.4 °F 32.1 °F 23.0 °F 56% 30.24 in 10.0 mi South 6.9 mph - N/A   Overcast
6:14 PM 39.2 °F 34.2 °F 21.2 °F 49% 30.24 in 10.0 mi SSE 6.9 mph - N/A   Overcast
6:33 PM 37.4 °F 31.4 °F 21.2 °F 52% 30.24 in 10.0 mi SSE 8.1 mph - N/A   Overcast
6:53 PM 37.4 °F 32.8 °F 21.2 °F 52% 30.24 in 10.0 mi SSE 5.8 mph - N/A   Mostly Cloudy
7:13 PM 37.4 °F 32.8 °F 21.2 °F 52% 30.24 in 10.0 mi SSE 5.8 mph - N/A   Scattered Clouds
7:33 PM 37.4 °F 34.9 °F 21.2 °F 52% 30.24 in 10.0 mi SE 3.5 mph - N/A   Clear
7:54 PM 35.6 °F - 21.2 °F 56% 30.24 in 10.0 mi Calm Calm - N/A   Clear
8:13 PM 35.6 °F - 23.0 °F 60% 30.24 in 10.0 mi Calm Calm - N/A   Clear
8:33 PM 35.6 °F - 21.2 °F 56% 30.24 in 10.0 mi Calm Calm - N/A   Clear
8:54 PM 33.8 °F - 21.2 °F 60% 30.24 in 10.0 mi Calm Calm - N/A   Clear
9:13 PM 32.0 °F - 21.2 °F 64% 30.24 in 10.0 mi Calm Calm - N/A   Clear
9:33 PM 30.2 °F - 21.2 °F 69% 30.24 in 10.0 mi Calm Calm - N/A   Clear
9:54 PM 30.2 °F - 21.2 °F 69% 30.25 in 10.0 mi Calm Calm - N/A   Clear
10:13 PM 28.4 °F - 21.2 °F 74% 30.25 in 10.0 mi Calm Calm - N/A   Clear
10:33 PM 28.4 °F - 21.2 °F 74% 30.24 in 10.0 mi Calm Calm - N/A   Clear
10:54 PM 26.6 °F - 19.4 °F 74% 30.24 in 10.0 mi Calm Calm - N/A   Clear
11:13 PM 28.4 °F - 21.2 °F 74% 30.24 in 10.0 mi Calm Calm - N/A   Scattered Clouds
11:33 PM 26.6 °F - 19.4 °F 74% 30.24 in 10.0 mi Calm Calm - N/A   Mostly Cloudy
11:54 PM 26.6 °F - 19.4 °F 74% 30.24 in 10.0 mi Calm Calm - N/A   Scattered Clouds